Hourly Weather Holostonur

Today, 13 April, Tuesday

Time Temperature Precipitation Wind Pressure Humidity
00:00 +14°C° 0 mm 5 mps 761 mmHg 55%
01:00 +13°C° 0 mm 4 mps 761 mmHg 58%
02:00 +12°C° 0 mm 4 mps 761 mmHg 60%
03:00 +12°C° 0 mm 4 mps 761 mmHg 62%
04:00 +11°C° 0 mm 4 mps 761 mmHg 64%
05:00 +11°C° 0 mm 4 mps 761 mmHg 66%
06:00 +10°C° 0 mm 4 mps 762 mmHg 68%
07:00 +11°C° 0 mm 4 mps 762 mmHg 67%
08:00 +13°C° 0 mm 5 mps 762 mmHg 66%
09:00 +14°C° 0 mm 5 mps 762 mmHg 67%
10:00 +16°C° 0 mm 5 mps 762 mmHg 61%
11:00 +17°C° 0 mm 6 mps 762 mmHg 55%
12:00 +20°C° 0 mm 7 mps 762 mmHg 49%
13:00 +21°C° 0 mm 6 mps 761 mmHg 44%
14:00 +22°C° 0 mm 6 mps 761 mmHg 39%
15:00 +22°C° 0 mm 6 mps 761 mmHg 34%
16:00 +21°C° 0 mm 5 mps 760 mmHg 38%
17:00 +20°C° 0 mm 3 mps 760 mmHg 42%
18:00 +19°C° 0 mm 2 mps 760 mmHg 46%
19:00 +18°C° 0 mm 3 mps 760 mmHg 45%
20:00 +17°C° 0 mm 4 mps 760 mmHg 45%
21:00 +15°C° 0 mm 4 mps 760 mmHg 45%
22:00 +14°C° 0 mm 4 mps 760 mmHg 46%
23:00 +13°C° 0 mm 4 mps 760 mmHg 47%

Tomorrow, 14 April, Wednesday

Time Temperature Precipitation Wind Pressure Humidity
00:00 +12°C° 0 mm 3 mps 760 mmHg 48%
01:00 +12°C° 0 mm 3 mps 759 mmHg 48%
02:00 +11°C° 0 mm 3 mps 759 mmHg 48%
03:00 +11°C° 0 mm 3 mps 759 mmHg 47%
04:00 +10°C° 0 mm 3 mps 758 mmHg 49%
05:00 +10°C° 0 mm 3 mps 758 mmHg 51%
06:00 +10°C° 0 mm 3 mps 758 mmHg 53%
07:00 +11°C° 0.1 mm 3 mps 758 mmHg 55%
08:00 +12°C° 0.1 mm 2 mps 758 mmHg 57%
09:00 +13°C° 0.1 mm 2 mps 757 mmHg 59%
10:00 +14°C° 0 mm 3 mps 757 mmHg 50%
11:00 +17°C° 0 mm 5 mps 757 mmHg 42%
12:00 +20°C° 0 mm 6 mps 757 mmHg 34%
13:00 +20°C° 0 mm 6 mps 756 mmHg 34%
14:00 +21°C° 0 mm 6 mps 756 mmHg 35%
15:00 +21°C° 0 mm 6 mps 756 mmHg 36%
16:00 +20°C° 0 mm 5 mps 756 mmHg 42%
17:00 +19°C° 0 mm 4 mps 756 mmHg 48%
18:00 +17°C° 0 mm 3 mps 755 mmHg 55%
19:00 +16°C° 0 mm 3 mps 756 mmHg 57%
20:00 +15°C° 0 mm 2 mps 756 mmHg 59%
21:00 +14°C° 0 mm 2 mps 756 mmHg 62%
22:00 +14°C° 0 mm 2 mps 756 mmHg 63%
23:00 +14°C° 0 mm 2 mps 756 mmHg 65%

Day after tomorrow, 15 April, Thursday

Time Temperature Precipitation Wind Pressure Humidity
00:00 +13°C° 0 mm 2 mps 756 mmHg 66%
01:00 +13°C° 0 mm 2 mps 756 mmHg 69%
02:00 +13°C° 0 mm 2 mps 756 mmHg 72%
03:00 +13°C° 0 mm 2 mps 756 mmHg 75%
04:00 +12°C° 0 mm 2 mps 756 mmHg 79%
05:00 +12°C° 0 mm 2 mps 756 mmHg 83%
06:00 +10°C° 0 mm 2 mps 756 mmHg 87%
07:00 +12°C° 0 mm 2 mps 756 mmHg 81%
08:00 +13°C° 0 mm 2 mps 756 mmHg 76%
09:00 +14°C° 0 mm 2 mps 756 mmHg 71%
10:00 +16°C° 0 mm 3 mps 756 mmHg 65%
11:00 +17°C° 0 mm 3 mps 756 mmHg 60%
12:00 +18°C° 0 mm 3 mps 756 mmHg 54%
13:00 +18°C° 0.1 mm 3 mps 756 mmHg 51%
14:00 +19°C° 0.1 mm 4 mps 756 mmHg 48%
15:00 +19°C° 0.1 mm 4 mps 755 mmHg 45%
16:00 +19°C° 0 mm 3 mps 755 mmHg 48%
17:00 +18°C° 0 mm 3 mps 756 mmHg 51%
18:00 +18°C° 0 mm 2 mps 756 mmHg 55%
19:00 +16°C° 0 mm 2 mps 756 mmHg 57%
20:00 +15°C° 0 mm 2 mps 756 mmHg 60%
21:00 +14°C° 0 mm 2 mps 756 mmHg 62%
22:00 +13°C° 0 mm 2 mps 756 mmHg 65%
23:00 +12°C° 0 mm 3 mps 756 mmHg 67%

16 April, Friday

Time Temperature Precipitation Wind Pressure Humidity
00:00 +11°C° 0 mm 3 mps 756 mmHg 70%
01:00 +11°C° 0 mm 3 mps 756 mmHg 75%
02:00 +10°C° 0 mm 3 mps 756 mmHg 79%
03:00 +10°C° 0 mm 3 mps 756 mmHg 84%
04:00 +10°C° 0 mm 3 mps 756 mmHg 86%
05:00 +9°C° 0 mm 3 mps 757 mmHg 87%
06:00 +9°C° 0 mm 2 mps 757 mmHg 88%
07:00 +12°C° 0 mm 2 mps 757 mmHg 81%
08:00 +14°C° 0 mm 2 mps 757 mmHg 74%
09:00 +15°C° 0 mm 2 mps 757 mmHg 67%
10:00 +16°C° 0 mm 2 mps 757 mmHg 61%
11:00 +18°C° 0 mm 2 mps 757 mmHg 56%
12:00 +19°C° 0 mm 2 mps 757 mmHg 51%
13:00 +19°C° 0 mm 2 mps 757 mmHg 49%
14:00 +19°C° 0 mm 2 mps 756 mmHg 46%
15:00 +20°C° 0 mm 2 mps 756 mmHg 44%
16:00 +19°C° 0 mm 2 mps 756 mmHg 49%
17:00 +18°C° 0 mm 2 mps 756 mmHg 54%
18:00 +17°C° 0 mm 2 mps 756 mmHg 59%
19:00 +16°C° 0.2 mm 3 mps 756 mmHg 63%
20:00 +14°C° 0.2 mm 4 mps 757 mmHg 68%
21:00 +13°C° 0.2 mm 5 mps 757 mmHg 73%
22:00 +12°C° 3.8 mm 4 mps 757 mmHg 79%
23:00 +11°C° 3.8 mm 3 mps 758 mmHg 85%

17 April, Saturday

Time Temperature Precipitation Wind Pressure Humidity
00:00 +10°C° 3.8 mm 2 mps 758 mmHg 91%
01:00 +10°C° 0 mm 2 mps 758 mmHg 91%
02:00 +10°C° 0 mm 2 mps 758 mmHg 92%
03:00 +10°C° 0 mm 2 mps 758 mmHg 92%
04:00 +9°C° 0 mm 3 mps 758 mmHg 92%
05:00 +9°C° 0 mm 3 mps 758 mmHg 93%
06:00 +8°C° 0 mm 4 mps 759 mmHg 93%
07:00 +10°C° 0 mm 4 mps 759 mmHg 84%
08:00 +11°C° 0 mm 4 mps 759 mmHg 75%
09:00 +12°C° 0 mm 5 mps 759 mmHg 67%
10:00 +13°C° 0 mm 4 mps 759 mmHg 61%
11:00 +14°C° 0 mm 4 mps 759 mmHg 55%
12:00 +15°C° 0 mm 4 mps 759 mmHg 49%
13:00 +15°C° 0 mm 4 mps 759 mmHg 46%
14:00 +17°C° 0 mm 4 mps 759 mmHg 43%
15:00 +17°C° 0 mm 4 mps 759 mmHg 39%
16:00 +16°C° 0 mm 3 mps 759 mmHg 44%
17:00 +16°C° 0 mm 3 mps 759 mmHg 48%
18:00 +15°C° 0 mm 2 mps 759 mmHg 52%
19:00 +14°C° 0 mm 2 mps 759 mmHg 53%
20:00 +13°C° 0 mm 1 mps 759 mmHg 55%
21:00 +12°C° 0 mm 1 mps 759 mmHg 57%
22:00 +12°C° 0 mm 1 mps 759 mmHg 59%
23:00 +11°C° 0 mm 1 mps 760 mmHg 61%

18 April, Sunday

Time Temperature Precipitation Wind Pressure Humidity
00:00 +11°C° 0 mm 1 mps 760 mmHg 62%
01:00 +10°C° 0 mm 1 mps 760 mmHg 64%
02:00 +10°C° 0 mm 1 mps 760 mmHg 65%
03:00 +10°C° 0 mm 1 mps 760 mmHg 66%
04:00 +9°C° 0 mm 0 mps 760 mmHg 67%
05:00 +9°C° 0 mm 0 mps 760 mmHg 68%
06:00 +9°C° 0 mm 0 mps 760 mmHg 69%
07:00 +10°C° 0 mm 0 mps 760 mmHg 63%
08:00 +12°C° 0 mm 0 mps 760 mmHg 57%
09:00 +13°C° 0 mm 0 mps 760 mmHg 51%
10:00 +15°C° 0 mm 1 mps 760 mmHg 47%
11:00 +16°C° 0 mm 1 mps 760 mmHg 44%
12:00 +17°C° 0 mm 2 mps 760 mmHg 40%
13:00 +17°C° 0 mm 2 mps 760 mmHg 40%
14:00 +17°C° 0 mm 3 mps 760 mmHg 41%
15:00 +18°C° 0 mm 3 mps 760 mmHg 41%
16:00 +17°C° 0 mm 4 mps 760 mmHg 48%
17:00 +15°C° 0 mm 5 mps 761 mmHg 55%
18:00 +13°C° 0 mm 6 mps 761 mmHg 63%
19:00 +11°C° 0 mm 6 mps 762 mmHg 65%
20:00 +10°C° 0 mm 7 mps 762 mmHg 67%
21:00 +9°C° 0 mm 7 mps 763 mmHg 69%
22:00 +9°C° 0 mm 7 mps 763 mmHg 67%
23:00 +8°C° 0 mm 7 mps 763 mmHg 66%
Show more